This is the latest recevied weather packets stored in our database for station/object KB3KBR-WX. If no packets are shown the sender has not sent any weather packets the latest 10 day(s).
| Time | Temp. | Humidity | Pressure | Rain* | Wind** | Luminosity | Snow |
|---|---|---|---|---|---|---|---|
| 1777920238 | 21.67° C | 38% | 1004 hPa | 0 mm | - | - | - |
| 1777919938 | 21.67° C | 37% | 1004.3 hPa | 0 mm | - | - | - |
| 1777919638 | 21.11° C | 37% | 1004.2 hPa | 0 mm | - | - | - |
| 1777919340 | 21.11° C | 39% | 1004.3 hPa | 0 mm | - | - | - |
| 1777919038 | 21.11° C | 38% | 1004.4 hPa | 0 mm | - | - | - |
| 1777918738 | 21.11° C | 39% | 1004.3 hPa | 0 mm | - | - | - |
| 1777918438 | 21.11° C | 38% | 1004.4 hPa | 0 mm | - | - | - |
| 1777918138 | 21.11° C | 38% | 1004.3 hPa | 0 mm | - | - | - |
| 1777917838 | 21.11° C | 37% | 1004.5 hPa | 0 mm | - | - | - |
| 1777917538 | 21.11° C | 42% | 1004.4 hPa | 0 mm | - | - | - |
| 1777917238 | 21.11° C | 42% | 1004.5 hPa | 0 mm | - | - | - |
| 1777916909 | 21.11° C | 43% | 1004.6 hPa | 0 mm | - | - | - |
| 1777916608 | 21.11° C | 41% | 1004.6 hPa | 0 mm | - | - | - |
| 1777916278 | 20.56° C | 46% | 1004.9 hPa | 0 mm | - | - | - |
| 1777915978 | 20.56° C | 44% | 1005 hPa | 0 mm | - | - | - |
| 1777915681 | 20.56° C | 46% | 1005 hPa | 0 mm | - | - | - |
| 1777915348 | 20.56° C | 44% | 1005 hPa | 0 mm | - | - | - |
| 1777915048 | 20.56° C | 46% | 1005 hPa | 0 mm | - | - | - |
| 1777914718 | 20.56° C | 45% | 1005.1 hPa | 0 mm | - | - | - |
| 1777914390 | 20° C | 45% | 1005.1 hPa | 0 mm | - | - | - |
| 1777914088 | 20° C | 44% | 1005.2 hPa | 0 mm | - | - | - |
| 1777913758 | 20° C | 45% | 1005.2 hPa | 0 mm | - | - | - |
| 1777913428 | 20° C | 45% | 1005.2 hPa | 0 mm | - | - | - |
| 1777913131 | 20° C | 48% | 1005.2 hPa | 0 mm | - | - | - |
| 1777912799 | 19.44° C | 49% | 1005.2 hPa | 0 mm | - | - | - |
* Rain latest hour (hover to see other rain measurements)
** Current wind speed in m/s (hover to see current wind gust speed)